Bishop, CA

3:53 AM PDT on August 30, 2016 (GMT -0700)
Bishop

Weather History for KBIH - February, 2014

Change the Weather History Date:

Tuesday, February 18, 2014

  Actual Average Record
Temperature  
Mean Temperature 48 °F 43 °F  
Max Temperature 68 °F 59 °F 76 °F (2015)
Min Temperature 27 °F 27 °F 15 °F (1944)
Degree Days  
Heating Degree Days 17 22  
Month to date heating degree days 361 428  
Since 1 July heating degree days 2787 2997  
Cooling Degree Days 0 0  
Month to date cooling degree days 0 0  
Year to date cooling degree days 0 0  
Moisture  
Dew Point 5 °F    
Average Humidity 22    
Maximum Humidity 36    
Minimum Humidity 8    
Precipitation  
Precipitation 0.00 in 0.03 in 1.24 in (1993)
Month to date precipitation 0.00 0.53  
Year to date precipitation 0.20 1.58  
Snow  
Snow 0.00 in 0.00 in T in (1994)
Month to date snowfall 0.0 0.5  
Since 1 July snowfall 0.5 7.2  
Snow Depth 0.00 in    
Sea Level Pressure  
Sea Level Pressure 30.02 in    
Wind  
Wind Speed 5 mph (NNW)    
Max Wind Speed 10 mph    
Max Gust Speed 12 mph    
Visibility 10 miles    
Events      
T = Trace of Precipitation, MM = Missing Value Source: NWS Daily Summary

Daily Weather History Graph

Daily Weather History Graph

Search for Another Location

Airport or City:

Trip Planner

Search our weather history database for the weather conditions in past years. The results will help you decide how hot, cold, wet, or windy it might be!

Date:

Astronomy

Feb. 18, 2014 Rise Set
Actual Time 6:38 AM PST 5:36 PM PST
Civil Twilight 6:12 AM PST 6:02 PM PST
Nautical Twilight 5:41 AM PST 6:33 PM PST
Astronomical Twilight 5:11 AM PST 7:03 PM PST
Moon 9:28 PM PST (2/18) 8:19 AM PST (2/18)
Length of Visible Light 11h 50m
Length of Day
10h 57m
Waning Gibbous, 86% of the Moon is Illuminated
Feb 18
Waning Gibbous
Feb 22
Last Quarter
Mar 1
New
Mar 8
First Quarter
Mar 16
Full

Hourly Weather History & Observations

Time (PST) Temp. Windchill Dew Point Humidity Pressure Visibility Wind Dir Wind Speed Gust Speed Precip Events Conditions
12:56 AM 37.0 °F 32.4 °F 5.0 °F 26% 30.02 in 10.0 mi West 5.8 mph - N/A   Clear
1:56 AM 34.0 °F 28.0 °F 3.9 °F 28% 30.04 in 10.0 mi NNE 6.9 mph - N/A   Clear
2:56 AM 36.0 °F 29.0 °F 6.1 °F 29% 30.03 in 10.0 mi West 9.2 mph - N/A   Clear
3:56 AM 28.0 °F 21.7 °F 5.0 °F 38% 30.04 in 10.0 mi NW 5.8 mph - N/A   Clear
4:56 AM 30.9 °F 22.8 °F 6.1 °F 35% 30.06 in 10.0 mi North 9.2 mph - N/A   Clear
5:56 AM 28.9 °F 22.8 °F 5.0 °F 36% 30.08 in 10.0 mi NNE 5.8 mph - N/A   Clear
6:56 AM 30.0 °F 25.2 °F 6.1 °F 36% 30.10 in 10.0 mi WNW 4.6 mph - N/A   Clear
7:56 AM 42.1 °F 39.2 °F 7.0 °F 24% 30.11 in 10.0 mi West 4.6 mph - N/A   Clear
8:56 AM 48.9 °F - 5.0 °F 17% 30.10 in 10.0 mi NNE 4.6 mph - N/A   Clear
9:56 AM 55.9 °F - 3.9 °F 12% 30.10 in 10.0 mi North 4.6 mph - N/A   Clear
10:56 AM 61.0 °F - 3.0 °F 10% 30.09 in 10.0 mi North 4.6 mph - N/A   Clear
11:56 AM 63.0 °F - 1.9 °F 9% 30.08 in 10.0 mi NW 5.8 mph - N/A   Partly Cloudy
12:56 PM 64.9 °F - 3.0 °F 9% 30.05 in 10.0 mi Variable 4.6 mph - N/A   Clear
1:56 PM 66.0 °F - 3.9 °F 9% 29.99 in 10.0 mi Calm Calm - N/A   Clear
2:56 PM 66.9 °F - 5.0 °F 9% 29.97 in 10.0 mi Calm Calm - N/A   Clear
3:56 PM 66.9 °F - 3.9 °F 8% 29.97 in 10.0 mi North 3.5 mph - N/A   Clear
4:56 PM 64.0 °F - 5.0 °F 10% 29.96 in 10.0 mi ENE 3.5 mph - N/A   Clear
5:56 PM 57.9 °F - 6.1 °F 13% 29.98 in 10.0 mi Calm Calm - N/A   Scattered Clouds
6:56 PM 53.1 °F - 7.0 °F 16% 30.00 in 10.0 mi SW 5.8 mph - N/A   Partly Cloudy
7:56 PM 51.1 °F - 7.0 °F 17% 30.00 in 10.0 mi South 9.2 mph - N/A   Scattered Clouds
8:56 PM 48.9 °F - 7.0 °F 18% 29.99 in 10.0 mi Calm Calm - N/A   Partly Cloudy
9:56 PM 48.0 °F - 7.0 °F 19% 29.96 in 10.0 mi NNE 5.8 mph - N/A   Clear
10:56 PM 48.0 °F - 8.1 °F 20% 29.94 in 10.0 mi SE 4.6 mph - N/A   Clear
11:56 PM 41.0 °F 38.0 °F 6.1 °F 24% 29.94 in 10.0 mi NNW 4.6 mph - N/A   Clear